Погода в Байке

Россия / Пензенская область     52°21′33″N   44°13′06″E
В апреле 2022 года жителям России запретили посещать сайт meteo.paraplan.net по решению Генеральной прокуратуры. Аудитория сайта уменьшилась в 10 раз. Владельцы сайта не видят смысла в поддержке погодного сервера в таких условиях. Сайт будет закрыт в октябре.
темп.,
°C
ветер,
м/с
пор.,
м/с
влажн.,
%
обл.,
%
осадки,
мм/ч
давл.,
гПа
погр.,
м
3 октября, пн
пн300:00+17ююв71870100 0.1 1007551
03:00+16юв91868100 0.1 1005610
06:00+16юв102060100 0.0 1005753
09:00+17ююв121951100 0.0 10051101
12:00+16ююв111857100 0.2 10061045
15:00+14ююз61085100 2.9 1010878
18:00+13ююз3476100 0.1 101382
21:00+11ю33782 0.1 101540
4 октября, вт
вт400:00+10ююв35785 0.0 101667
03:00+10ююв4881100 0.0 1017129
06:00+9ююв41087100 0.0 1017179
09:00+13ююв51078100 0.0 1018452
12:00+16ю685798 0.0 10181282
15:00+16ююв6862100 0.1 10181196
18:00+12ююв81483100 0.2 1019526
21:00+11ююв7147699 0.4 1020544
5 октября, ср
ср500:00+10ююв7138180 0.0 1020424
03:00+10ююв6118891 0.1 1020325
06:00+9ююв6118941 0.1 1020318
09:00+13ю611776 0.1 1019529
12:00+16юз7963100 0.1 10191270
15:00+15юз61052100 0.1 10181484
18:00+12юз38609 0.0 1019174
21:00+10юз486958 0.0 1019266
6 октября, чт
чт600:00+11юз3969100 0.0 1019682
03:00+8зюз48865 0.1 1020250
06:00+7з48825 0.0 1020455
09:00+9з58707 0.0 1020748
12:00+10з686698 0.1 10201160
15:00+11з6863100 0.2 10191344
18:00+9з5883100 0.1 1020518
21:00+9юз51191100 0.4 1020537
7 октября, пт
пт700:00+10зюз6138575 0.0 1019509
03:00+10зюз61485100 0.0 1018512
06:00+10зюз6138594 0.0 1018503
09:00+12з7118049 0.0 1018578
12:00+15зсз687177 0.0 1019846
15:00+13зсз687696 0.0 1020879
18:00+11зюз48750 0.0 1021163
21:00+9зсз410800 0.0 1023241